User: anonymous   Login
Location: Unspecified
(0.0000°N, 0.0000°E)
Time: 03:57:45
(UTC+01:00)
Language:

CZ-4B DEB - Orbit

View from above orbital plane
View from above orbital plane
View from above satellite
View from above satellite

Ground track
Ground track

The orbit data is extracted from the following two-line orbital elements,

1 33411U 08053D   14356.55440841  .00043816  00000-0  21674-2 0  3659
2 33411 097.5010 013.2439 0008820 341.7390 018.3526 15.17639982336786
Epoch (UTC): 22 December 2014 13:18:20
Eccentricity: 0.0008820
inclination: 97.5010°
perigee height: 507 km
apogee height: 519 km
right ascension of ascending node: 13.2439°
argument of perigee: 341.7390°
revolutions per day: 15.17639982
mean anomaly at epoch: 18.3526°
orbit number at epoch: 33678

The dashed part of the orbit path shows where the satellite is in the earth's shadow,  

DLR